TimeEDT,TemperatureF,Dew PointF,Humidity,Sea Level PressureIn,VisibilityMPH,Wind Direction,Wind SpeedMPH,Gust SpeedMPH,PrecipitationIn,Events,Conditions,WindDirDegrees,DateUTC
12:15 AM,50.9,50.0,97,30.13,10.0,Calm,Calm,-,N/A,,Clear,0,2013-04-24 04:15:00
12:35 AM,51.1,49.8,95,30.13,10.0,Calm,Calm,-,N/A,,Clear,0,2013-04-24 04:35:00
12:55 AM,49.8,48.7,96,30.13,10.0,Calm,Calm,-,N/A,,Clear,0,2013-04-24 04:55:00
1:15 AM,49.5,47.8,94,30.12,10.0,Calm,Calm,-,N/A,,Clear,0,2013-04-24 05:15:00
1:35 AM,49.1,48.4,97,30.12,10.0,Calm,Calm,-,N/A,,Clear,0,2013-04-24 05:35:00
1:55 AM,48.6,47.8,97,30.12,10.0,Calm,Calm,-,N/A,,Clear,0,2013-04-24 05:55:00
2:15 AM,48.0,47.7,99,30.11,7.0,Calm,Calm,-,N/A,,Clear,0,2013-04-24 06:15:00
2:35 AM,48.0,47.7,99,30.11,7.0,Calm,Calm,-,N/A,,Clear,0,2013-04-24 06:35:00
2:55 AM,47.7,47.5,99,30.11,7.0,Calm,Calm,-,N/A,,Clear,0,2013-04-24 06:55:00
3:15 AM,46.8,46.4,99,30.11,5.0,Calm,Calm,-,N/A,,Clear,0,2013-04-24 07:15:00
3:35 AM,46.4,46.2,99,30.10,5.0,Calm,Calm,-,N/A,,Clear,0,2013-04-24 07:35:00
3:55 AM,50.2,50.2,100,30.10,10.0,SW,3.5,-,N/A,,Clear,220,2013-04-24 07:55:00
4:15 AM,51.1,50.9,99,30.10,10.0,SW,4.6,-,N/A,,Clear,220,2013-04-24 08:15:00
4:35 AM,50.9,50.4,98,30.10,10.0,SW,3.5,-,N/A,,Clear,220,2013-04-24 08:35:00
4:55 AM,50.9,50.0,97,30.10,10.0,SW,3.5,-,N/A,,Clear,220,2013-04-24 08:55:00
5:15 AM,50.9,50.2,97,30.11,10.0,SW,3.5,-,N/A,,Clear,220,2013-04-24 09:15:00
5:35 AM,50.4,49.6,97,30.11,7.0,Calm,Calm,-,N/A,,Clear,0,2013-04-24 09:35:00
5:55 AM,50.0,49.3,97,30.11,7.0,Calm,Calm,-,N/A,,Clear,0,2013-04-24 09:55:00
6:15 AM,49.1,48.6,98,30.11,7.0,Calm,Calm,-,N/A,,Clear,0,2013-04-24 10:15:00
6:35 AM,48.6,48.0,98,30.11,7.0,Calm,Calm,-,N/A,,Clear,0,2013-04-24 10:35:00
6:55 AM,47.1,46.8,99,30.11,3.0,Calm,Calm,-,N/A,,Clear,0,2013-04-24 10:55:00
7:15 AM,47.5,47.1,99,30.11,2.5,Calm,Calm,-,N/A,,Clear,0,2013-04-24 11:15:00
7:35 AM,50.2,50.2,100,30.12,5.0,Calm,Calm,-,N/A,,Clear,0,2013-04-24 11:35:00
7:55 AM,51.6,51.4,99,30.12,5.0,Calm,Calm,-,N/A,,Clear,0,2013-04-24 11:55:00
8:15 AM,53.4,52.3,96,30.12,7.0,SSW,4.6,-,N/A,,Clear,210,2013-04-24 12:15:00
8:35 AM,55.4,52.9,91,30.12,10.0,SSW,5.8,-,N/A,,Clear,210,2013-04-24 12:35:00
8:55 AM,56.7,53.1,88,30.11,10.0,SW,5.8,-,N/A,,Mostly Cloudy,220,2013-04-24 12:55:00
9:15 AM,57.9,53.6,86,30.11,10.0,WSW,4.6,-,N/A,,Scattered Clouds,240,2013-04-24 13:15:00
9:35 AM,59.9,54.0,81,30.10,10.0,WSW,8.1,-,N/A,,Clear,250,2013-04-24 13:35:00
9:55 AM,62.1,54.3,76,30.10,10.0,WSW,5.8,-,N/A,,Clear,250,2013-04-24 13:55:00
10:15 AM,62.8,54.5,74,30.09,10.0,SW,8.1,-,N/A,,Clear,220,2013-04-24 14:15:00
10:35 AM,64.6,54.0,68,30.09,10.0,SSW,8.1,-,N/A,,Clear,210,2013-04-24 14:35:00
10:55 AM,64.6,54.0,68,30.08,10.0,SW,9.2,17.3,N/A,,Clear,230,2013-04-24 14:55:00
11:15 AM,65.5,53.8,66,30.08,10.0,WSW,8.1,16.1,N/A,,Clear,240,2013-04-24 15:15:00
11:35 AM,66.7,54.9,66,30.07,10.0,WSW,6.9,-,N/A,,Clear,250,2013-04-24 15:35:00
11:55 AM,67.8,54.7,63,30.06,10.0,SSW,15.0,-,N/A,,Scattered Clouds,200,2013-04-24 15:55:00
12:15 PM,68.7,54.7,61,30.06,10.0,SSW,11.5,16.1,N/A,,Clear,200,2013-04-24 16:15:00
12:35 PM,70.0,55.0,59,30.05,10.0,South,10.4,18.4,N/A,,Scattered Clouds,180,2013-04-24 16:35:00
12:55 PM,71.1,54.5,56,30.05,10.0,SSW,12.7,19.6,N/A,,Clear,200,2013-04-24 16:55:00
1:15 PM,72.3,54.0,52,30.05,10.0,SW,15.0,20.7,N/A,,Scattered Clouds,220,2013-04-24 17:15:00
1:35 PM,70.7,53.2,54,30.05,10.0,SSW,17.3,25.3,N/A,,Scattered Clouds,210,2013-04-24 17:35:00
1:55 PM,72.3,54.5,53,30.03,10.0,SW,10.4,18.4,N/A,,Clear,220,2013-04-24 17:55:00
2:15 PM,72.3,53.6,52,30.02,10.0,SW,15.0,31.1,N/A,,Scattered Clouds,230,2013-04-24 18:15:00
2:35 PM,72.9,53.6,51,30.02,10.0,SSW,15.0,21.9,N/A,,Scattered Clouds,210,2013-04-24 18:35:00
2:55 PM,73.2,54.3,51,30.01,10.0,SW,15.0,25.3,N/A,,Scattered Clouds,220,2013-04-24 18:55:00
3:15 PM,74.1,53.4,48,30.01,10.0,SSW,15.0,25.3,N/A,,Scattered Clouds,210,2013-04-24 19:15:00
3:35 PM,73.8,52.7,48,30.01,10.0,SW,19.6,27.6,N/A,,Clear,230,2013-04-24 19:35:00
3:55 PM,73.2,52.7,48,30.00,10.0,SW,13.8,24.2,N/A,,Clear,230,2013-04-24 19:55:00
4:15 PM,73.6,53.2,49,29.99,10.0,SW,13.8,25.3,N/A,,Scattered Clouds,220,2013-04-24 20:15:00
4:35 PM,73.8,53.2,49,29.98,10.0,SW,15.0,27.6,N/A,,Clear,230,2013-04-24 20:35:00
4:55 PM,72.9,53.2,50,29.97,10.0,SW,13.8,25.3,N/A,,Clear,230,2013-04-24 20:55:00
5:15 PM,73.0,53.6,50,29.97,10.0,SW,9.2,17.3,N/A,,Scattered Clouds,220,2013-04-24 21:15:00
5:35 PM,72.7,53.4,51,29.98,10.0,SW,8.1,20.7,N/A,,Mostly Cloudy,230,2013-04-24 21:35:00
5:55 PM,73.0,53.8,51,29.97,10.0,SW,13.8,19.6,N/A,,Mostly Cloudy,220,2013-04-24 21:55:00
6:15 PM,73.2,53.4,50,29.97,10.0,SW,13.8,19.6,N/A,,Scattered Clouds,220,2013-04-24 22:15:00
6:35 PM,72.9,53.4,50,29.98,10.0,SSW,11.5,19.6,N/A,,Clear,210,2013-04-24 22:35:00
6:55 PM,72.7,53.8,51,29.98,10.0,SW,9.2,18.4,N/A,,Clear,230,2013-04-24 22:55:00
7:15 PM,72.0,54.1,53,29.98,10.0,SW,8.1,-,N/A,,Scattered Clouds,220,2013-04-24 23:15:00
7:35 PM,71.8,54.0,53,29.98,10.0,SW,6.9,-,N/A,,Mostly Cloudy,220,2013-04-24 23:35:00
7:55 PM,71.6,53.6,53,29.98,10.0,SW,11.5,18.4,N/A,,Mostly Cloudy,230,2013-04-24 23:55:00
8:15 PM,71.1,54.0,55,29.99,10.0,SW,6.9,-,N/A,,Overcast,220,2013-04-25 00:15:00
8:35 PM,70.3,54.1,56,30.00,10.0,SW,5.8,-,N/A,,Mostly Cloudy,220,2013-04-25 00:35:00
8:55 PM,70.0,54.5,58,30.00,10.0,SSW,4.6,-,N/A,,Mostly Cloudy,210,2013-04-25 00:55:00
9:15 PM,69.3,54.5,59,30.00,10.0,SW,6.9,-,N/A,,Mostly Cloudy,220,2013-04-25 01:15:00
9:35 PM,68.7,54.5,60,30.00,10.0,SSW,4.6,-,N/A,,Mostly Cloudy,210,2013-04-25 01:35:00
9:55 PM,67.6,54.7,63,30.00,10.0,Calm,Calm,-,N/A,,Mostly Cloudy,0,2013-04-25 01:55:00
11:15 PM,62.2,54.7,76,30.01,10.0,Calm,Calm,-,N/A,,Clear,0,2013-04-25 03:15:00
11:35 PM,58.3,54.5,87,30.01,10.0,Calm,Calm,-,N/A,,Clear,0,2013-04-25 03:35:00
11:55 PM,58.6,55.2,88,30.01,10.0,Calm,Calm,-,N/A,,Scattered Clouds,0,2013-04-25 03:55:00